TimeCDT,TemperatureF,Dew PointF,Humidity,Sea Level PressureIn,VisibilityMPH,Wind Direction,Wind SpeedMPH,Gust SpeedMPH,PrecipitationIn,Events,Conditions,WindDirDegrees,DateUTC
12:53 AM,69.1,68.0,96,29.91,9.0,NW,3.5,-,N/A,,Clear,320,2013-09-02 05:53:00
1:53 AM,72.0,68.0,87,29.90,10.0,West,4.6,-,N/A,,Mostly Cloudy,270,2013-09-02 06:53:00
2:53 AM,71.1,68.0,90,29.89,10.0,West,4.6,-,N/A,,Clear,270,2013-09-02 07:53:00
3:53 AM,72.0,69.1,91,29.89,10.0,WNW,4.6,-,N/A,,Mostly Cloudy,290,2013-09-02 08:53:00
4:53 AM,71.1,68.0,90,29.90,10.0,WNW,4.6,-,N/A,,Partly Cloudy,290,2013-09-02 09:53:00
5:53 AM,70.0,69.1,97,29.91,8.0,WNW,3.5,-,N/A,,Clear,300,2013-09-02 10:53:00
6:53 AM,70.0,68.0,93,29.93,6.0,WNW,4.6,-,N/A,,Clear,290,2013-09-02 11:53:00
7:53 AM,71.1,69.1,93,29.95,7.0,WNW,6.9,-,N/A,,Clear,300,2013-09-02 12:53:00
8:53 AM,73.9,68.0,82,29.97,10.0,NNW,5.8,-,N/A,,Clear,340,2013-09-02 13:53:00
9:53 AM,75.9,64.9,69,29.99,10.0,North,5.8,-,N/A,,Mostly Cloudy,360,2013-09-02 14:53:00
10:53 AM,79.0,64.9,62,29.99,10.0,Variable,3.5,-,N/A,,Partly Cloudy,0,2013-09-02 15:53:00
11:53 AM,82.0,66.0,58,29.99,10.0,Variable,4.6,-,N/A,,Clear,0,2013-09-02 16:53:00
12:53 PM,82.9,64.9,54,29.98,10.0,Variable,4.6,-,N/A,,Scattered Clouds,0,2013-09-02 17:53:00
1:53 PM,82.0,64.0,54,29.97,10.0,North,3.5,-,N/A,,Scattered Clouds,360,2013-09-02 18:53:00
2:53 PM,84.0,63.0,49,29.95,10.0,NNW,4.6,-,N/A,,Scattered Clouds,330,2013-09-02 19:53:00
3:53 PM,82.9,62.1,49,29.94,10.0,NNW,5.8,-,N/A,,Partly Cloudy,340,2013-09-02 20:53:00
4:53 PM,84.0,62.1,47,29.92,10.0,NNW,5.8,-,N/A,,Partly Cloudy,330,2013-09-02 21:53:00
5:53 PM,82.9,63.0,51,29.92,10.0,Variable,4.6,-,N/A,,Clear,0,2013-09-02 22:53:00
6:53 PM,79.0,63.0,58,29.93,10.0,NW,3.5,-,N/A,,Clear,320,2013-09-02 23:53:00
7:53 PM,73.0,63.0,71,29.94,10.0,NW,3.5,-,N/A,,Clear,320,2013-09-03 00:53:00
8:53 PM,71.1,63.0,75,29.95,10.0,Calm,Calm,-,N/A,,Clear,0,2013-09-03 01:53:00
9:53 PM,69.1,62.1,78,29.97,10.0,North,-9999.0,-,N/A,,Clear,0,2013-09-03 02:53:00
10:53 PM,66.9,61.0,81,29.97,10.0,WNW,3.5,-,N/A,,Clear,300,2013-09-03 03:53:00
11:53 PM,66.9,61.0,81,29.98,10.0,WNW,4.6,-,N/A,,Clear,290,2013-09-03 04:53:00